Le nostre stazioni meteo in Italia

Pubblicità
Il mio iltempo24.it
Carterhouse, Gran Bretagna (99129): Temperatura & dewpoint: 22.06.2017 23:00:00 - 28.06.2017 23:00:00 (BST)Carterhouse, Gran Bretagna (99129): Temperatura -20cm & Temperatura -100cm: 22.06.2017 23:00:00 - 28.06.2017 23:00:00 (BST)Carterhouse, Gran Bretagna (99129): velocità del vento: 22.06.2017 23:00:00 - 28.06.2017 23:00:00 (BST)Carterhouse, Gran Bretagna (99129): direzione del vento: 22.06.2017 23:00:00 - 28.06.2017 23:00:00 (BST)Carterhouse, Gran Bretagna (99129): visibility: 22.06.2017 23:00:00 - 28.06.2017 23:00:00 (BST)Carterhouse, Gran Bretagna (99129): precipitazioni: 22.06.2017 23:00:00 - 28.06.2017 23:00:00 (BST)
Data & Tempo tt [°C] td [°C] tt -20cm [°C] tt -100cm [°C] ff [km/h] ff [kn] dd vv [km] rr [mm]
28.06.2017 23:00:00 8,3 8,0 - - - - - - 1,6
28.06.2017 22:00:00 8,5 7,9 - - - - - - 0,2
28.06.2017 21:00:00 8,5 7,3 - - - - - - 0,0
28.06.2017 20:00:00 8,8 7,0 - - - - - - 0,0
28.06.2017 19:00:00 9,0 6,9 - - - - - - 0,0
28.06.2017 18:00:00 9,3 6,6 - - - - - - 0,0
28.06.2017 17:00:00 10,1 7,0 - - - - - - 0,0
28.06.2017 16:00:00 9,9 6,9 - - - - - - 0,0
28.06.2017 15:00:00 10,5 6,6 - - - - - - 0,0
28.06.2017 14:00:00 10,3 8,3 - - - - - - 0,0
28.06.2017 13:00:00 11,2 8,0 - - - - - - 0,0
28.06.2017 12:00:00 10,3 8,4 - - - - - - 0,0
28.06.2017 11:00:00 11,3 7,9 - - - - - - 0,0
28.06.2017 10:00:00 10,4 8,3 14,7 13,7 7 4 N - 0,0
28.06.2017 09:00:00 10,1 8,3 - - - - - - 0,0
28.06.2017 08:00:00 9,9 8,7 - - - - - - 0,0
28.06.2017 07:00:00 9,7 8,8 - - - - - - 0,0
28.06.2017 06:00:00 9,7 8,6 - - - - - - 0,0
28.06.2017 05:00:00 9,7 8,9 - - - - - - 0,0
28.06.2017 04:00:00 9,5 8,8 - - - - - - 0,0
28.06.2017 03:00:00 9,5 9,1 - - - - - - 0,0
28.06.2017 02:00:00 9,6 8,9 - - - - - - 0,0
28.06.2017 01:00:00 9,5 8,9 - - - - - - 0,0
28.06.2017 00:00:00 9,3 8,6 - - - - - - 0,0
27.06.2017 23:00:00 9,6 9,2 - - - - - - 0,0
27.06.2017 22:00:00 9,6 9,4 - - - - - - 0,0
27.06.2017 21:00:00 9,8 9,7 - - - - - - 0,0
27.06.2017 20:00:00 10,0 9,7 - - - - - - 0,0
27.06.2017 19:00:00 10,1 9,6 - - - - - - 0,2
27.06.2017 18:00:00 10,3 9,5 - - - - - - 0,2
27.06.2017 17:00:00 10,9 9,6 - - - - - - 0,2
27.06.2017 16:00:00 10,2 9,5 - - - - - - 0,0
27.06.2017 15:00:00 10,5 9,4 - - - - - - 0,0
27.06.2017 14:00:00 11,1 10,1 - - - - - - 0,4
27.06.2017 13:00:00 11,1 9,8 - - - - - - 0,2
27.06.2017 12:00:00 10,6 9,8 - - - - - - 1,0
27.06.2017 11:00:00 10,1 9,2 - - - - - - 0,6
27.06.2017 10:00:00 9,4 8,7 15,0 13,7 - - N 28 0,4
27.06.2017 09:00:00 8,8 8,2 - - - - - - 1,0
27.06.2017 08:00:00 8,7 8,0 - - - - - - 0,8
27.06.2017 07:00:00 8,5 7,7 - - - - - - 1,0
27.06.2017 06:00:00 8,5 7,6 - - - - - - 0,8
27.06.2017 05:00:00 8,1 7,4 - - - - - - 0,6
27.06.2017 04:00:00 8,2 7,5 - - - - - - 0,2
27.06.2017 03:00:00 8,6 8,1 - - - - - - 1,2
27.06.2017 02:00:00 8,6 7,7 - - - - - - 1,0
27.06.2017 01:00:00 9,1 7,5 - - - - - - 0,2
27.06.2017 00:00:00 9,4 7,5 - - - - - - 0,0
26.06.2017 23:00:00 10,1 8,2 - - - - - - 0,0
26.06.2017 22:00:00 10,5 8,1 - - - - - - 0,0
26.06.2017 21:00:00 11,2 8,5 - - - - - - 0,0
26.06.2017 20:00:00 11,8 8,5 - - - - - - 0,0
26.06.2017 19:00:00 11,9 8,1 - - - - - - 0,0
26.06.2017 18:00:00 13,1 7,3 - - - - - - 0,0
26.06.2017 17:00:00 13,9 6,9 - - - - - - 0,0
26.06.2017 16:00:00 14,3 5,9 - - - - - - 0,0
26.06.2017 15:00:00 13,7 6,4 - - - - - - 0,0
26.06.2017 14:00:00 12,7 6,7 - - - - - - 0,0
26.06.2017 13:00:00 12,3 6,9 - - - - - - 0,0
26.06.2017 12:00:00 12,8 6,7 - - - - - - 0,0
26.06.2017 11:00:00 12,5 6,9 - - - - - - 0,0
26.06.2017 10:00:00 12,6 6,9 15,4 13,7 - - N 3,5 0,0
26.06.2017 09:00:00 11,8 7,1 - - - - - - 0,0
26.06.2017 08:00:00 10,3 6,9 - - - - - - 0,0
26.06.2017 07:00:00 10,2 7,4 - - - - - - 0,0
26.06.2017 06:00:00 8,5 7,0 - - - - - - 0,0
26.06.2017 05:00:00 6,4 5,1 - - - - - - 0,0
26.06.2017 04:00:00 7,5 6,1 - - - - - - 0,0
26.06.2017 03:00:00 6,7 5,7 - - - - - - 0,0
26.06.2017 02:00:00 6,4 4,8 - - - - - - 0,0
26.06.2017 01:00:00 7,0 5,2 - - - - - - 0,0
26.06.2017 00:00:00 8,1 5,4 - - - - - - 0,0
25.06.2017 23:00:00 8,4 5,4 - - - - - - 0,0
25.06.2017 22:00:00 9,2 5,4 - - - - - - 0,0
25.06.2017 21:00:00 11,1 5,4 - - - - - - 0,0
25.06.2017 20:00:00 12,2 6,2 - - - - - - 0,0
25.06.2017 19:00:00 13,5 6,1 - - - - - - 0,0
25.06.2017 18:00:00 15,7 6,6 - - - - - - 0,0
25.06.2017 17:00:00 15,8 6,1 - - - - - - 0,0
25.06.2017 16:00:00 14,3 5,1 - - - - - - 0,0
25.06.2017 15:00:00 15,9 5,6 - - - - - - 0,0
25.06.2017 14:00:00 16,4 6,3 - - - - - - 0,0
25.06.2017 13:00:00 16,1 5,8 - - - - - - 0,0
25.06.2017 12:00:00 14,9 5,9 - - - - - - 0,0
25.06.2017 11:00:00 13,2 5,8 - - - - - - 0,0
25.06.2017 10:00:00 13,7 5,5 15,2 13,7 - - N - 0,0
25.06.2017 09:00:00 12,7 6,4 - - - - - - 0,0
25.06.2017 08:00:00 11,0 6,0 - - - - - - 0,0
25.06.2017 07:00:00 9,4 5,3 - - - - - - 0,0
25.06.2017 06:00:00 8,3 4,8 - - - - - - 0,0
25.06.2017 05:00:00 8,1 4,5 - - - - - - 0,0
25.06.2017 04:00:00 7,5 4,6 - - - - - - 0,0
25.06.2017 03:00:00 7,9 4,8 - - - - - - 0,0
25.06.2017 02:00:00 8,3 5,0 - - - - - - 0,0
25.06.2017 01:00:00 8,2 5,2 - - - - - - 0,0
25.06.2017 00:00:00 8,9 5,4 - - - - - - 0,0
24.06.2017 23:00:00 9,9 6,0 - - - - - - 0,0
24.06.2017 22:00:00 10,6 6,2 - - - - - - 0,0
24.06.2017 21:00:00 11,3 6,0 - - - - - - 0,0
24.06.2017 20:00:00 11,9 6,0 - - - - - - 0,0
24.06.2017 19:00:00 12,6 5,4 - - - - - - 0,0
24.06.2017 18:00:00 15,1 6,2 - - - - - - 0,0
24.06.2017 17:00:00 15,3 6,9 - - - - - - 0,0
24.06.2017 16:00:00 15,3 6,5 - - - - - - 0,0
24.06.2017 15:00:00 14,1 5,7 - - - - - - 0,0
24.06.2017 14:00:00 14,0 6,2 - - - - - - 0,0
24.06.2017 13:00:00 13,2 7,6 - - - - - - 0,0
24.06.2017 12:00:00 14,0 7,4 - - - - - - 0,0
24.06.2017 11:00:00 12,1 6,5 - - - - - - 0,0
24.06.2017 10:00:00 11,8 7,0 15,7 13,7 163 88 N 24 0,0
24.06.2017 09:00:00 11,2 7,6 - - - - - - 0,0
24.06.2017 08:00:00 10,5 6,7 - - - - - - 0,0
24.06.2017 07:00:00 9,3 7,0 - - - - - - 0,0
24.06.2017 06:00:00 8,9 7,0 - - - - - - 0,0
24.06.2017 05:00:00 8,4 7,0 - - - - - - 0,0
24.06.2017 04:00:00 8,8 6,8 - - - - - - 0,0
24.06.2017 03:00:00 9,4 6,4 - - - - - - 0,0
24.06.2017 02:00:00 9,5 6,5 - - - - - - 0,0
24.06.2017 01:00:00 9,4 6,9 - - - - - - 0,0
24.06.2017 00:00:00 10,3 7,8 - - - - - - 0,0
23.06.2017 23:00:00 10,5 8,6 - - - - - - 0,0
23.06.2017 22:00:00 11,5 9,1 - - - - - 10 0,0
23.06.2017 21:00:00 13,4 9,0 - - - - - - 0,0
23.06.2017 20:00:00 13,7 10,2 - - - - - - 0,0
23.06.2017 19:00:00 14,6 10,1 - - - - - - 0,0
23.06.2017 18:00:00 14,7 11,3 - - - - - - 0,0
23.06.2017 17:00:00 14,1 12,1 - - - - - - 0,0
23.06.2017 16:00:00 13,2 12,3 - - - - - - 0,0
23.06.2017 15:00:00 14,7 13,3 - - - - - - 0,2
23.06.2017 14:00:00 13,6 13,0 - - - - - - 0,8
23.06.2017 13:00:00 14,0 13,5 - - - - - - 0,0
23.06.2017 12:00:00 13,5 13,0 - - - - - - 0,0
23.06.2017 11:00:00 13,1 12,7 - - - - - - 0,0
23.06.2017 10:00:00 12,6 12,3 16,4 13,4 58 31 N 0,7 0,2
23.06.2017 09:00:00 12,2 11,9 - - - - - - 0,0
23.06.2017 08:00:00 12,0 11,4 - - - - - - 0,0
23.06.2017 07:00:00 11,4 11,2 - - - - - - 0,2
23.06.2017 06:00:00 11,3 10,9 - - - - - - 0,4
23.06.2017 05:00:00 11,4 10,5 - - - - - - 0,2
23.06.2017 04:00:00 11,4 10,2 - - - - - - 0,2
23.06.2017 03:00:00 11,7 9,9 - - - - - - 0,0
23.06.2017 02:00:00 11,7 10,1 - - - - - - 0,0
23.06.2017 01:00:00 11,6 10,4 - - - - - - 0,0
23.06.2017 00:00:00 11,4 9,7 - - - - - - 0,0
22.06.2017 23:00:00 11,8 10,3 - - - - - - 0,0

tt = Temperatura
td = dewpoint
tt -20cm = Temperatura -20cm
tt -100cm = Temperatura -100cm
ff = velocità del vento
dd = direzione del vento
vv = visibility
rr = precipitazioni

Stazioni seguenti

WeatherPro
AMSI
MeteoEarth